Garin, Argentina
Current Conditions -  °F | °C
As of 3:00 PM on Sunday 21 Dec 2014 (Local Time) from SADF Reporting Station
Scattered Clouds Scattered Clouds  
Wind Chill: 73°   Ceiling: Unl
Heat Index: 73°   Visibility: 6mi
Dew Point: 45°   Wind: 10mph
Humidity: 36%   Direction: 160°SSE
Pressure: 29.77"   Gusts: NA
Location:  34.43°S, 58.73°W
Report Text: SADF 211800Z 16009KT 9999 SCT035 23/07 Q1008
Loading
Personal Weather Stations






























Interactive Weather Map New forecast layout! Learn more

10-Day Weather Forecast

Advertisements
Track Severe Weather on mobile